Probability
0 1 3 6 7 4 2 1 0 0 0 0 0 1 2 1 1 2 2 4 7 6 2 2 3 3 3 2 1 0 0 0 1 2 2 1 0 0 0 0 0 0 0 0 1 2 4 6 8
1 2 3 6 7 4 1 0 0 0 0 0 0 1 2 3 3 2 3 5 7 5 2 1 3 3 3 2 1 0 0 0 0 1 2 1 0 0 0 0 0 0 0 0 1 2 4 6 7
0 1 3 5 5 2 0 0 0 0 0 0 0 1 2 3 4 4 4 5 6 4 2 1 3 3 3 1 0 0 0 0 0 0 1 1 0 0 0 0 1 1 0 0 1 3 4 6 6
1 1 1 2 2 1 0 0 0 0 0 0 1 1 2 4 5 4 4 4 5 4 2 2 3 3 2 1 0 0 0 0 0 0 0 0 0 1 1 2 2 2 1 1 1 2 4 5 6
2 1 0 0 0 0 0 1 0 0 0 1 2 3 4 5 5 4 3 4 4 3 3 4 5 4 3 1 1 0 0 0 0 0 0 0 0 1 3 3 3 3 3 2 3 3 3 5 6
2 1 0 0 0 0 0 0 0 0 0 1 3 6 6 6 4 3 3 3 3 4 4 5 5 4 3 3 2 1 0 1 1 0 0 0 0 1 2 3 2 3 3 3 3 3 4 6 6
2 1 0 0 0 1 1 0 0 0 0 1 3 6 7 6 5 3 1 1 2 3 5 6 5 4 3 3 3 2 2 2 2 1 1 1 1 1 1 2 2 3 3 3 3 4 6 7 7
1 0 0 0 1 2 3 2 1 2 2 2 5 8 10 8 5 2 1 1 2 3 4 6 7 6 4 3 3 3 3 3 3 3 3 3 2 2 2 3 3 3 3 3 3 5 7 9 9
0 0 0 0 1 4 5 4 3 4 4 5 9 12 12 10 6 3 2 3 4 4 5 6 7 6 5 3 3 3 3 3 3 4 5 5 2 1 3 4 4 4 3 3 3 5 8 9 9
0 0 0 0 1 2 3 3 3 4 4 7 12 14 12 9 6 5 6 6 6 6 5 5 5 6 6 5 4 3 3 4 4 6 8 7 3 2 3 5 6 6 4 3 3 4 6 8 8
0 0 0 0 0 1 1 2 3 4 5 9 13 12 9 7 6 7 9 10 10 9 8 6 5 6 9 9 8 6 5 5 7 9 10 8 5 5 6 8 9 8 5 3 3 4 5 6 6
0 0 0 0 0 0 1 3 5 6 8 12 13 11 8 6 7 8 9 11 14 13 12 10 7 8 12 14 13 10 8 7 10 12 10 7 7 7 9 11 11 9 5 3 3 5 5 5 5
0 0 0 0 0 0 1 3 5 7 10 13 13 11 8 8 9 10 10 11 13 15 16 14 13 15 18 20 17 13 10 9 12 13 10 7 8 9 10 11 9 7 5 4 5 6 6 5 5
0 0 0 0 0 0 1 2 3 5 9 11 11 11 10 10 11 12 13 14 14 17 21 21 21 22 25 23 18 13 11 11 12 13 11 8 8 10 9 8 8 6 5 6 7 8 8 6 4
0 0 0 0 0 0 0 1 2 5 8 7 9 11 12 11 11 13 18 22 23 25 29 29 25 26 29 26 20 15 13 12 12 13 12 9 7 8 9 10 10 7 6 8 9 9 8 6 4
0 0 0 0 0 0 0 1 4 7 8 7 8 10 12 11 11 14 21 30 36 39 40 35 29 30 33 32 26 19 16 14 12 14 14 10 6 6 8 11 11 9 7 8 9 7 6 4 3
0 0 0 0 0 0 0 2 5 7 8 9 9 11 13 14 14 17 25 37 45 49 48 42 38 39 39 37 31 24 19 17 16 17 17 13 9 8 8 9 9 8 7 7 7 7 5 3 3
0 0 0 0 0 0 1 3 4 6 10 14 15 15 17 20 21 23 30 42 50 54 54 50 47 47 45 40 34 28 24 21 19 21 23 20 16 12 9 8 9 8 7 8 9 8 6 4 4
0 0 0 0 0 0 2 4 6 8 14 19 19 18 19 22 25 29 34 41 49 55 58 55 52 51 49 42 36 33 31 27 23 24 27 26 21 16 13 12 12 10 9 10 11 10 8 6 5
0 0 0 0 0 0 3 6 8 10 15 21 20 18 17 21 28 35 36 37 43 50 55 55 53 51 48 44 41 39 37 33 28 27 29 28 23 18 17 17 17 14 14 14 15 13 10 6 5
0 0 0 0 0 0 2 6 9 11 13 17 18 16 17 21 30 37 38 36 38 44 49 50 51 51 47 44 41 39 38 36 33 31 31 29 25 21 18 19 19 18 18 18 18 15 11 8 7
0 0 0 0 0 0 1 4 9 12 12 12 14 15 18 23 29 34 35 34 34 38 43 48 52 55 52 45 40 39 39 37 35 35 35 32 27 23 18 18 20 22 20 18 18 15 11 8 7
0 0 0 0 0 0 1 3 8 13 13 11 13 17 20 24 28 29 29 30 31 35 40 47 54 58 56 49 43 42 40 38 35 33 35 34 29 23 17 17 21 23 20 17 16 14 11 7 6
0 0 0 0 0 0 1 3 8 12 13 14 17 22 24 25 27 27 26 27 31 34 39 45 52 55 54 50 46 44 41 36 32 30 31 31 28 23 19 18 20 22 19 16 15 14 11 8 7
0 0 0 0 0 0 1 4 7 11 16 19 23 26 27 27 26 26 26 27 31 34 38 43 49 52 51 48 44 42 39 34 31 30 30 28 26 25 23 19 19 20 18 16 14 12 10 9 8
0 0 0 0 0 0 2 5 9 15 20 22 23 25 27 27 25 25 26 27 29 33 36 41 46 48 47 44 41 40 38 34 33 35 33 29 25 25 23 20 20 20 18 14 11 9 8 8 8
0 0 0 0 0 0 2 7 15 22 24 22 20 21 25 26 23 22 24 26 29 31 33 37 41 43 42 41 39 39 38 37 36 38 37 32 28 25 23 21 21 21 19 15 12 10 9 9 10
0 0 0 0 0 0 1 8 19 26 25 20 16 17 21 23 22 22 22 25 29 30 30 32 34 36 37 37 38 40 40 38 37 36 37 36 33 29 26 24 22 23 22 21 19 16 14 14 14
0 0 0 0 0 0 0 6 17 25 25 20 16 16 19 21 22 22 23 25 27 27 28 27 27 28 29 32 36 40 41 40 36 34 33 34 32 31 30 27 24 23 24 24 23 20 20 18 17
0 0 0 0 0 0 0 3 13 22 25 22 19 18 19 21 22 22 22 23 24 26 27 25 24 23 23 28 35 40 42 40 35 32 30 29 28 30 31 27 24 23 23 23 22 21 20 19 17
Wind_Speed
8 10 10 7 5 3 4 8 12 13 13 12 11 12 17 15 12 11 10 13 17 16 14 13 11 10 10 9 8 8 8 8 7 8 8 8 8 7 8 7 6 6 6 7 7 8 8 8 8
9 11 10 5 3 2 6 9 12 13 11 10 11 14 16 15 14 13 11 13 17 16 14 12 11 10 9 9 8 8 8 8 8 8 8 8 8 7 7 7 6 6 6 6 6 7 7 7 7
12 14 8 5 2 1 7 10 11 11 9 10 12 14 13 12 13 11 11 13 16 16 15 13 11 10 9 9 8 8 8 8 8 8 8 7 7 7 7 6 6 6 5 5 6 6 6 6 5
9 8 7 4 0 3 8 10 9 10 9 9 12 11 12 11 12 12 12 13 16 16 15 13 11 10 9 9 8 8 8 8 8 8 7 7 7 6 6 6 5 5 5 5 5 5 5 5 4
10 8 7 3 0 6 9 9 8 9 9 11 14 13 13 13 14 13 11 12 15 16 15 13 11 10 9 8 8 8 8 8 8 7 7 6 6 6 6 6 5 4 4 5 4 4 4 4 3
8 7 7 2 0 6 7 7 7 10 10 10 13 14 11 11 12 11 11 11 14 15 15 13 12 10 9 9 9 9 9 8 7 7 7 7 6 5 5 5 5 4 4 4 4 4 3 3 3
9 9 9 4 1 4 6 7 7 8 9 9 9 13 12 11 10 9 11 12 13 14 14 12 11 9 9 9 10 10 9 7 7 7 6 6 6 5 5 5 5 4 4 4 4 3 3 3 2
8 9 10 5 2 4 5 6 8 8 9 7 7 10 12 12 9 9 10 11 12 11 11 11 11 10 9 9 10 10 9 7 7 6 6 5 5 5 5 5 5 4 4 4 3 3 3 3 3
9 8 8 5 1 5 5 5 7 8 9 9 10 12 15 14 11 10 9 9 9 9 9 9 9 8 8 9 9 10 9 7 6 5 5 5 3 4 4 5 6 5 5 4 3 4 4 4 5
7 7 9 3 2 4 5 4 5 7 8 10 12 15 15 13 11 9 9 9 10 8 8 8 8 8 7 6 7 5 6 6 4 3 3 2 1 2 4 7 6 5 4 3 4 4 5 5 3
9 8 8 4 2 1 3 4 5 7 6 8 12 15 14 12 10 8 9 8 9 8 7 8 6 6 5 4 4 3 3 4 3 3 2 2 1 2 3 3 3 3 4 3 2 3 3 2 1
10 8 7 4 2 1 1 2 5 6 7 10 13 14 13 11 10 8 8 8 8 7 7 7 6 5 4 4 3 2 2 3 2 3 2 2 1 1 1 1 2 2 2 2 1 1 0 1 1
10 7 7 6 4 2 1 0 4 7 9 12 13 13 12 11 10 8 8 7 7 7 7 7 6 6 4 3 2 3 2 2 3 3 1 1 1 1 1 1 1 1 1 2 1 0 0 1 1
9 7 8 8 6 4 4 4 4 7 10 11 11 10 10 10 9 8 8 8 7 6 7 7 6 6 4 3 1 2 2 2 2 3 3 1 1 2 2 1 1 1 1 2 1 1 1 1 1
9 9 9 9 8 7 7 5 6 9 10 11 11 10 9 10 9 8 7 8 7 6 6 6 6 6 4 3 3 2 2 2 2 3 3 2 1 2 1 1 1 1 1 1 1 1 1 1 1
10 11 11 10 10 9 9 7 7 9 11 10 10 10 9 9 9 9 9 8 8 7 6 4 5 6 4 3 2 2 2 2 2 2 3 3 1 1 1 0 1 1 0 1 1 1 2 2 1
12 13 13 11 11 9 9 7 8 9 10 10 9 8 9 9 8 8 9 9 8 7 6 4 4 5 5 3 3 2 2 2 2 2 3 3 1 1 1 0 1 0 0 1 1 2 1 1 1
10 11 11 11 9 10 10 8 8 10 10 8 7 7 7 8 7 7 8 9 8 8 7 5 4 4 4 4 2 2 1 2 2 2 2 3 1 1 1 0 2 0 1 1 2 1 1 1 1
12 11 9 7 6 9 9 8 8 8 8 7 6 6 7 7 7 7 6 7 7 8 7 5 5 4 3 2 2 2 2 2 2 2 3 3 2 2 1 1 2 0 1 1 1 1 0 1 0
14 13 10 7 7 8 7 7 7 7 7 8 8 7 5 6 7 7 7 7 8 7 6 6 5 5 4 2 1 2 2 2 2 3 3 3 3 2 2 1 1 1 1 1 0 0 1 1 1
12 12 10 8 6 6 8 9 9 9 8 7 7 7 7 5 6 7 6 6 6 7 7 6 5 5 4 3 2 2 1 1 2 3 3 3 3 2 1 1 0 0 0 1 0 0 1 1 1
10 10 11 10 9 9 11 9 9 7 7 7 7 6 6 5 6 6 6 6 6 7 7 6 5 4 3 3 2 2 2 2 2 2 3 3 3 3 2 1 0 0 0 1 1 0 1 1 2
9 8 10 12 12 12 11 10 7 8 8 6 5 5 6 6 6 5 5 5 6 6 7 6 6 4 4 3 2 2 1 1 1 2 3 3 3 3 2 2 1 0 0 0 1 0 1 1 2
9 11 10 12 12 13 12 10 5 5 7 6 7 6 6 6 6 5 4 4 4 5 6 6 6 4 4 3 2 2 1 1 1 2 2 2 2 2 2 2 1 1 1 1 1 1 2 1 2
10 9 8 9 10 10 8 7 3 3 4 5 7 6 6 6 5 4 4 4 4 4 4 4 6 4 4 3 2 2 1 2 1 1 2 2 2 2 2 2 2 2 1 1 1 1 1 1 2
10 11 10 9 8 7 8 6 2 6 6 6 7 7 6 5 4 4 3 4 3 3 3 3 4 4 3 3 2 2 1 1 1 2 2 2 1 2 2 2 2 2 2 2 1 1 2 1 2
10 10 12 13 14 11 5 4 6 7 7 7 8 7 6 5 4 4 4 4 3 3 3 3 3 3 3 3 2 2 1 1 1 1 1 1 1 2 3 3 2 2 2 1 1 1 1 1 2
11 9 7 9 9 11 6 4 4 6 5 5 5 6 6 5 4 4 3 3 3 4 3 2 3 2 2 2 2 2 2 1 1 1 0 0 1 0 2 2 2 2 2 2 2 2 2 2 2
8 10 8 8 9 9 7 1 4 6 6 5 3 5 6 5 5 4 4 4 4 4 4 3 3 2 1 1 1 0 1 1 1 1 0 0 0 0 1 1 2 2 2 2 2 3 2 2 2
8 9 8 7 8 9 8 1 6 6 6 6 4 5 6 5 5 5 5 4 4 4 3 3 2 1 1 1 2 1 1 1 1 1 1 1 1 1 1 1 2 3 2 2 2 3 3 3 3
Wind_Direction
215 223 225 242 251 261 49 62 68 68 65 61 57 63 65 55 61 86 100 98 104 109 112 110 105 104 101 96 93 92 95 97 97 100 97 93 87 83 80 77 88 94 99 103 104 106 106 105 106
241 238 234 240 264 345 69 73 74 74 74 74 71 72 76 73 82 98 106 106 109 114 115 109 110 106 103 101 99 96 96 99 100 100 98 95 90 84 79 77 86 95 99 104 107 111 112 108 110
259 254 255 237 215 89 81 83 83 84 80 77 76 67 65 80 89 102 115 119 113 110 108 112 113 110 108 108 105 100 98 100 100 97 96 94 92 88 83 78 84 95 101 106 110 111 113 113 114
259 243 234 250 244 96 92 89 90 90 85 84 84 79 72 71 95 110 126 120 112 111 112 116 118 115 113 114 114 109 105 105 104 100 99 96 96 95 90 84 91 100 105 110 113 113 116 117 119
247 257 250 270 14 84 85 88 92 89 79 83 92 97 90 89 104 121 124 115 113 112 115 121 122 120 119 119 121 118 112 108 103 100 100 98 93 95 94 90 92 104 112 116 115 117 123 128 134
261 266 269 259 71 88 87 87 83 90 87 92 104 103 99 108 115 123 118 114 113 116 117 125 127 125 123 120 125 125 118 115 111 107 104 102 100 103 106 102 94 98 118 128 126 130 136 146 157
263 286 289 279 175 92 88 90 85 85 85 78 97 107 112 115 118 122 121 115 114 116 125 134 137 134 129 120 124 126 124 123 122 121 119 118 117 120 122 118 108 97 113 132 139 147 156 164 185
263 285 284 264 177 108 87 89 95 88 84 80 88 112 125 127 132 132 124 118 117 120 126 133 136 141 144 133 134 136 134 134 132 137 143 145 147 147 145 135 118 113 116 132 154 169 178 190 211
258 273 279 276 124 121 111 103 107 100 96 84 81 100 121 132 139 139 129 122 117 118 126 132 135 138 139 136 138 149 150 147 145 155 168 174 178 158 157 123 125 131 143 153 170 187 193 206 224
239 248 267 300 61 120 129 133 131 121 109 104 101 107 125 140 147 148 139 135 128 129 132 130 130 137 140 136 141 154 156 150 165 141 154 180 169 122 124 126 141 152 160 172 212 229 227 223 216
243 243 272 294 52 86 134 135 121 107 111 122 125 130 138 147 151 147 137 135 134 135 130 123 118 117 122 120 139 142 140 141 150 129 137 126 127 129 124 141 151 171 175 180 189 227 235 222 180
244 247 264 283 317 235 204 133 103 102 117 126 132 141 146 155 152 146 140 133 130 130 127 117 117 114 106 103 114 119 120 127 125 123 128 134 122 85 101 119 137 172 164 154 149 226 203 334 276
242 237 253 268 256 249 249 64 116 125 122 121 130 143 152 156 151 144 136 127 123 127 126 126 123 111 101 91 93 112 103 120 121 123 127 98 109 75 68 66 66 60 87 107 113 101 61 303 23
249 244 240 242 243 231 218 195 179 139 134 135 139 148 154 151 147 142 138 137 133 131 126 121 122 118 116 116 112 100 114 114 114 115 109 78 65 65 61 65 61 36 50 75 86 80 66 62 61
252 248 243 236 229 228 227 220 197 158 150 150 151 156 160 153 149 147 145 141 135 129 120 124 127 122 128 133 143 131 132 133 120 119 116 107 74 72 68 72 93 61 42 76 77 45 60 72 68
248 245 242 234 223 221 226 219 203 168 160 159 164 165 163 156 157 153 148 140 134 130 122 133 133 132 133 127 125 125 139 124 117 121 121 119 104 82 55 57 88 71 44 86 98 61 51 47 42
239 239 240 232 213 215 218 218 184 169 173 171 171 166 160 158 160 154 152 144 136 128 128 138 129 136 137 136 134 141 141 116 110 105 110 122 142 115 112 94 90 48 62 64 52 71 40 47 43
238 239 237 235 214 213 218 205 184 183 181 172 167 164 158 151 153 148 147 143 137 130 132 137 135 130 139 143 147 150 141 129 122 111 109 118 134 113 91 122 98 31 45 67 56 52 5 304 265
264 264 260 252 231 228 225 212 191 183 179 161 162 167 161 153 150 139 133 131 134 132 135 138 139 135 143 153 164 166 167 160 147 133 116 118 110 89 97 40 100 75 66 83 91 70 322 298 7
258 264 260 251 230 243 241 225 191 192 191 173 173 165 150 154 144 137 137 140 149 144 141 138 145 146 155 150 159 166 166 161 144 122 125 126 124 110 127 90 103 113 99 113 72 339 282 291 336
253 262 267 258 245 247 249 242 212 194 188 174 162 160 156 167 153 143 138 140 149 147 149 153 149 148 161 155 169 155 150 161 145 134 131 132 131 121 75 107 81 105 153 141 213 320 310 311 311
253 261 269 273 268 251 232 242 213 192 185 176 165 157 148 152 150 145 147 149 153 150 143 135 136 140 146 143 158 156 160 168 157 152 141 148 146 141 138 117 205 229 118 118 192 114 286 291 290
264 268 265 264 262 266 248 244 210 179 191 176 157 150 148 147 138 144 150 148 147 140 142 140 130 131 134 141 144 154 160 155 145 142 141 156 153 149 141 138 163 196 121 148 166 228 265 277 279
261 263 259 255 256 253 254 256 226 195 183 172 160 151 136 131 134 140 132 117 109 118 129 133 131 130 135 144 141 149 152 145 153 166 160 173 160 157 152 149 171 193 191 219 225 255 240 274 302
242 251 249 241 238 247 248 248 201 163 138 153 155 142 130 132 132 122 120 106 93 87 91 115 129 133 142 152 147 158 167 185 180 196 179 191 173 158 171 178 182 196 205 213 213 235 261 262 292
236 245 255 264 260 251 233 232 167 112 104 122 124 114 116 116 115 107 105 110 108 99 89 95 121 133 142 153 154 157 193 210 208 218 216 200 193 161 155 178 186 186 197 217 218 215 230 243 265
248 247 265 274 280 278 245 184 144 125 120 119 117 116 110 101 92 91 92 111 122 108 96 93 106 126 146 156 161 161 175 219 248 227 208 190 198 168 167 186 188 190 206 227 224 242 233 229 243
254 265 266 267 274 278 263 226 170 136 124 114 111 108 108 104 102 93 102 100 102 99 92 83 96 111 148 158 187 183 182 216 261 261 186 177 180 193 160 183 196 197 203 226 234 244 241 232 243
233 254 264 276 279 281 282 344 86 136 134 113 104 104 101 99 94 86 77 82 83 87 87 90 102 106 117 154 198 170 162 194 225 241 309 341 240 211 183 192 214 219 215 222 232 245 241 241 248
254 254 255 266 278 281 283 46 68 94 106 112 99 85 89 95 95 90 80 70 61 64 70 79 92 128 164 175 170 178 195 214 213 209 219 222 225 235 226 221 230 231 221 227 234 248 252 247 249